Regional Weather Roundup
Issued by NWS State College, PA

Home | Current Version | Previous Version | Graphics & Text | Print | Product List | Glossary On
Versions: 1 2 3 4 5 6 7 8 9 10 11 12 13 14 15 16 17 18 19 20 21 22 23 24 25 26 27 28 29 30 31 32 33 34 35 36 37 38 39 40 41 42 43 44 45 46 47 48 49 50
000
ASUS41 KCTP 071310
RWRCTP

REGIONAL WEATHER ROUNDUP
NATIONAL WEATHER SERVICE STATE COLLEGE PA
900 AM EDT TUE JUL 07 2015

Note: "fair" indicates few or no clouds below 12,000 feet with no
significant weather and/or obstructions to visibility.

* = STATION THAT DOES NOT REPORT PRECIPITATION /E.G. RAIN...SNOW...ETC/
    THUNDER OR FOG.

PAZ002>004-007>009-013>016-020>023-029>032-071400-
WESTERN PENNSYLVANIA

CITY           SKY/WX    TMP DP  RH WIND       PRES   REMARKS
ERIE           MOSUNNY   76  65  68 S14       29.94F
MEADVILLE      MOSUNNY   71  65  81 S8        30.01S HAZE
FRANKLIN*      MOSUNNY   70  64  83 S9        30.04S
NEW CASTLE     FAIR      73  69  87 VRB7      30.02F
BEAVER COUNTY  PTSUNNY   72  68  88 SW7       30.04S
BUTLER*        MOSUNNY   72  68  88 SW7       30.05F
PITTSBURGH INT MOSUNNY   73  67  81 SW8       30.04S
PITTSBURGH     MOSUNNY   72  65  78 SW10      30.05S
INDIANA*       PTSUNNY   72  68  88 SW8       30.10S
LATROBE        MOSUNNY   73  72  94 SW12      30.07S
WASHINGTON CO* NOT AVBL
$$

PAZ004>006-010>012-017>019-024>028-033>037-041-042-045-046-049>053-071400-
CENTRAL PENNSYLVANIA

CITY           SKY/WX    TMP DP  RH WIND       PRES   REMARKS
BRADFORD       SUNNY     70  63  78 SW9       30.05F
DUBOIS         PTSUNNY   71  65  81 SW10      30.06S
CLEARFIELD     CLOUDY    71  66  84 SW9       30.07S
JOHNSTOWN      PTSUNNY   68  64  87 SW7       30.10F FOG
ALTOONA        PTSUNNY   71  67  87 SW6       30.09S FOG
STATE COLLEGE  CLOUDY    72  68  88 SW7       30.07R
WILLIAMSPORT   MOSUNNY   75  71  87 CALM      30.00F
SELINSGROVE    PTSUNNY   76  71  85 VRB3      30.04S
FT INDIANTOWN  PTSUNNY   75  72  88 SW6       30.04F
CAPITAL CITY   PTSUNNY   76  70  82 VRB5      30.04F
HARRISBURG     PTSUNNY   76  70  82 CALM      30.03F
YORK           MOSUNNY   76  71  85 SW5       30.06S
$$

PAZ038>040-043-044-047-048-054-055-060>062-067>071-071400-
EASTERN PENNSYLVANIA

CITY           SKY/WX    TMP DP  RH WIND       PRES   REMARKS
SCRANTON       CLOUDY    76  71  85 W6        30.04S
MOUNT POCONO   CLOUDY    72  68  87 SW8       30.10R
ALLENTOWN      CLOUDY    77  72  84 VRB6      30.05R
QUAKERTOWN*    CLOUDY    75  72  88 SW5       30.07S
READING        CLOUDY    76  71  85 S6        30.04S
LANCASTER      PTSUNNY   76  72  87 SW5       30.05F
COATESVILLE    CLOUDY    73  73 100 SW5       30.08R
POTTSTOWN      CLOUDY    74  71  91 CALM      30.07R
BLUE BELL      CLOUDY    77  72  83 SW8       30.05S
DOYLESTOWN     CLOUDY    74  70  87 W6        30.05S
WILLOW GROVE   NOT AVBL
NORTH PHILA    PTSUNNY   81  70  69 W10       30.06R
PHILADELPHIA   MOSUNNY   80  72  76 SW8       30.05S
$$


USA.gov is the U.S. government's official web portal to all federal, state and local government web resources and services.